Regional Weather Roundup
Issued by NWS

Home | Current Version | Previous Version | Text Only | Print | Product List | Glossary On
Versions: 1 2 3 4 5 6 7 8 9 10 11 12 13 14 15 16 17 18 19 20 21 22 23 24 25 26 27 28 29 30 31 32 33 34 35 36 37 38 39 40 41 42 43 44 45 46 47 48 49 50
648
ASUS44 KJAN 211803
RWRMS

MISSISSIPPI HOURLY WEATHER ROUNDUP
NATIONAL WEATHER SERVICE JACKSON MS
100 PM CDT THU AUG 21 2014

NOTE: "FAIR: INDICATES FEW OR NO CLOUDS BELOW 12,000 FEET WITH NO
SIGNIFICANT WEATHER AND/OR OBSTRUCTIONS TO VISIBILITY.

MSZ001>002-007>008-010>013-018>021-025>028-034>036-211900-
NORTHWEST MISSISSIPPI

CITY           SKY/WX    TMP DP  RH WIND       PRES   REMARKS
CLARKSDALE     FAIR      90  77  66 SW3       30.12S HX 102
CLEVELAND      FAIR      90  78  66 SW6       30.10F HX 104
GREENWOOD      MOSUNNY   91  74  57 S7        30.12F HX 100
6HR MIN TEMP:  73; 6HR MAX TEMP:  91;

GREENVILLE     SUNNY     92  74  55 SW10      30.10F HX 101
6HR MIN TEMP:  73; 6HR MAX TEMP:  92;

GRENADA        FAIR      91  72  52 SW6       30.13S HX  98
OLIVE BRANCH   PTSUNNY   90  75  62 SW12      30.12S HX 100
OXFORD         FAIR      88  70  55 W7        30.15S HX  92
TUNICA         PTCLDY    90  73  58 SW10      30.11S HX  98
$$

MSZ003>006-009-014>017-022>024-029>033-037>039-211900-
NORTHEAST MISSISSIPPI

CITY           SKY/WX    TMP DP  RH WIND       PRES   REMARKS
BELMONT        FAIR      87  75  68 W7        30.14F HX  96
COLUMBUS AFB   SUNNY     92  73  52 NW6       30.13F HX 100
6HR MIN TEMP:  73; 6HR MAX TEMP:  92; 6HR PCP: TRACE;

CORINTH        FAIR      90  73  58 SW8       30.12F HX  98
GOLDN TRIANGLE MOSUNNY   93  73  52 NW6       30.14F HX 102
STARKVILLE     FAIR      91  70  49 CALM      30.13F HX  97
TUPELO         PTSUNNY   91  71  51 W6        30.12F HX  97
6HR MIN TEMP:  75; 6HR MAX TEMP:  93;

$$

MSZ040-058-211900-
CENTRAL MISSISSIPPI

CITY           SKY/WX    TMP DP  RH WIND       PRES   REMARKS
JACKSON INTL   MOSUNNY   93  73  52 NW6       30.13F HX 102
6HR MIN TEMP:  73; 6HR MAX TEMP:  93;

JACKSON HAWKNS SUNNY     93  73  52 VRB6      30.14F HX 102
6HR MIN TEMP:  75; 6HR MAX TEMP:  93;

MERIDIAN KEY   PTSUNNY   91  71  51 NW3       30.14F HX  97
6HR MIN TEMP:  73; 6HR MAX TEMP:  94;

MERIDIAN NAS   SUNNY     92  71  50 CALM      30.14F HX  98
6HR MIN TEMP:  75; 6HR MAX TEMP:  92;

RAYMOND        FAIR      91  84  79 NW7       30.14S HX 118
VICKSBURG      MOSUNNY   91  74  57 SW5       30.12S HX 100
6HR MIN TEMP:  73; 6HR MAX TEMP:  93;

$$

MSZ059>079-211900-
SOUTH MISSISSIPPI

CITY           SKY/WX    TMP DP  RH WIND       PRES   REMARKS
BROOKHAVEN     MOCLDY    90  73  58 W5        30.16F HX  98
HATTIESBURG    MOSUNNY   92  71  50 W3        30.14S HX  98
6HR MIN TEMP:  74; 6HR MAX TEMP:  95;

MCCOMB         MOSUNNY   92  71  50 CALM      30.14F HX  98
6HR MIN TEMP:  72; 6HR MAX TEMP:  93;

NATCHEZ        SUNNY     90  77  66 S3        30.14S HX 102
6HR MIN TEMP:  75; 6HR MAX TEMP:  90;

PINE BELT      MOSUNNY   91  72  52 S5        30.16S HX  98
6HR MIN TEMP:  72; 6HR MAX TEMP:  91;

$$

MSZ080>082-211900-
COASTAL MISSISSIPPI

CITY           SKY/WX    TMP DP  RH WIND       PRES   REMARKS
BAY ST LOUIS   MOSUNNY  N/A N/A N/A CALM      30.13F
BILOXI         MOSUNNY   92  76  57 SW10      30.13F HX 104
6HR MIN TEMP:  79; 6HR MAX TEMP:  93;

PASCAGOULA     MOSUNNY   92  76  59 VRB5      30.13S HX 104
6HR MIN TEMP:  74; 6HR MAX TEMP:  93;

GULFPORT       MOSUNNY   93  75  55 VRB6      30.12F HX 104
6HR MIN TEMP:  78; 6HR MAX TEMP:  93;

$$



USA.gov is the U.S. government's official web portal to all federal, state and local government web resources and services.